Regional Weather Roundup
Issued by NWS Jackson, KY

Home | Current Version | Previous Version | Text Only | Print | Product List | Glossary Off
Versions: 1 2 3 4 5 6 7 8 9 10 11 12 13 14 15 16 17 18 19 20 21 22 23 24 25 26 27 28 29 30 31 32 33 34 35 36 37 38 39 40 41 42 43 44 45 46 47 48 49 50

305
ASUS43 KJKL 251410
RWRJKL

EAST KENTUCKY HOURLY WEATHER ROUNDUP
NATIONAL WEATHER SERVICE JACKSON KY
1000 AM EDT TUE APR 25 2017

NOTE: "FAIR" INDICATES FEW OR NO CLOUDS BELOW 12,000 FEET WITH
NO SIGNIFICANT WEATHER AND/OR OBSTRUCTIONS TO VISIBILITY.

* THESE REPORTS ARE NOT UNDER NWS QUALITY CONTROL AND MAY NOT
  REPORT WEATHER SUCH AS PRECIPITATION AND FOG.

KYZ079-080-083-085-087-088-110-112-115-119-120-251500
...EASTERN KENTUCKY...

CITY           SKY/WX    TMP DP  RH WIND       PRES   REMARKS
JACKSON        CLOUDY    57  53  86 VRB3      29.81S
LONDON         CLOUDY    56  51  84 VRB5      29.81R
SOMERSET*      SUNNY     59  52  77 E3        29.81S
MONTICELLO*    CLOUDY    61  56  83 W12       29.82R
WILLIAMSBURG*  SUNNY     59  57  94 CALM      29.80R
MIDDLESBORO*   CLOUDY    57  54  88 CALM      29.82R
$$

KYZ035-036-041-042-044-050-067-078-099-251500
...CENTRAL KENTUCKY...

CITY           SKY/WX    TMP DP  RH WIND       PRES   REMARKS
DANVILLE*      CLOUDY    54  52  94 E3        29.83R
LEXINGTON      MOSUNNY   60  53  77 E6        29.82R
FRANKFORT      SUNNY     62  52  69 VRB7      29.80R
LOUISVILLE     MOSUNNY   63  55  75 SE5       29.79F
GLASGOW*       SUNNY     63  55  77 CALM      29.79S
BOWLING GREEN  MOSUNNY   63  58  83 CALM      29.79F
$$

KYZ091>093-OHZ055-061-077-WVZ005-015-034-035-042-251500
...SOUTHERN OHIO/WEST VIRGINIA...

CITY           SKY/WX    TMP DP  RH WIND       PRES   REMARKS
COVINGTON      MOSUNNY   61  52  72 E5        29.82R
COLUMBUS       CLOUDY    60  50  69 E12       29.84F
DAYTON         MOSUNNY   59  50  72 E9        29.83S
WILMINGTON     SUNNY     59  51  75 E9        29.82F
HUNTINGTON     CLOUDY    57  50  77 E5        29.83R
CHARLESTON     LGT RAIN  54  51  90 NE5       29.82F
PINEVILLE*     CLOUDY    60  55  82 MISG      29.85S
BECKLEY        LGT RAIN  56  52  86 VRB5      29.82R
BLUEFIELD      CLOUDY    51  49  92 NE5       29.82S
LOGAN CO APT*  CLOUDY    55  54  94 CALM      29.82S
$$

VAZ002-007-008-TNZ017-027-036-066-071-251500
...SOUTHWEST VIRGINIA/EAST TENNESSEE...

CITY           SKY/WX    TMP DP  RH WIND       PRES   REMARKS
WISE*          CLOUDY    52  52 100 N5        29.83S
ABINGDON*      CLOUDY    59  55  84 CALM      29.80S
BRISTOL        CLOUDY    59  53  80 CALM      29.80R
MORRISTOWN*    CLOUDY    57  55  94 CALM      29.80R
KNOXVILLE      CLOUDY    59  53  80 E5        29.80R
LAFOLLETTE*    MOSUNNY   61  55  82 CALM      29.82R
CROSSVILLE     CLOUDY    58  55  90 VRB3      29.83R
NASHVILLE      MOSUNNY   61  55  81 CALM      29.81S
$$

...KEY TO REMARKS...
VSB - VISIBILITY IN MILES
WCI - WIND CHILL INDEX
HX  - HEAT INDEX

$$




USA.gov is the U.S. government's official web portal to all federal, state and local government web resources and services.